FENGYUN 2H AKM, 43497

Orbit data source: Space-Track

FENGYUN 2H AKM, 43497 is space debris in GEO originally from a launch on Tue, 05 Jun 2018 UTC launched from the Xichang Space Center, China (XSC). Debris objects in space refer to the collection of defunct objects orbiting the Earth. Examples of debris include non-operational satellites, rocket bodies, and fragments generated from explosions, collisions, or faulty payload assembly.

Not visible in the next 10 days
FENGYUN 2H AKM details
Identifier
43497, 2018-050C
Orbit
GEO
Last TLE update23 hours ago
Origin
Flag of CNCASC (CN / PRC)
ManufacturerChina ARMT
MissionSpacecraft
Bus & MotorSHANXI AKM, Unknown motor
Mass~50 kg wet, ~50 kg dry
Launch date (UTC)
2018-06-05 (7 years ago)
Launch vehicleUnknown
Launch site
Xichang Space Center, China (XSC)
Object type
Payload
Rocket body
Debris
Shape & HBRCyl + Cone, 1.5 m
Radar Cross Section1.571 m²

Expand to show TLE details & history

TLE from 23 hours ago
0 FENGYUN 2H AKM
1 43497U 18050C   24360.48837936 -.00000015  00000-0  00000-0 0  9991
2 43497   3.4794  83.7944 0084893 308.3902  50.5186  1.00089905 23910
Epoch: 2024-12-25T11:43Z
Definitive object data (Epoch: 2024-12-25T11:43:15.976Z)
Latitude-0°
Longitude173.15362°
Altitude35,610.363 km
Speed3.089 km/s
True Right ascension05h 33m 48s
True Declination0° 00' 00"
Sunlit
Object was in daylight at TLE epoch
Visualization TLE readout
Latitude-1.27657°
Longitude151.68119°
Altitude35,525.218 km
Speed3.096 km/s
Apparent Right ascension03h 41m 03s
Apparent Declination-6° 52' 02"
Sunlit
Object is in daylight
Visualization observer readout
Local Sidereal Time09:38:15
Azimuth264.277° W
Elevation-3.865°
Doppler factor1
Orbital elements
Apogee altitude36,197.115 km
Perigee altitude35,480.332 km
Semi-major axis42,216.86 km
Eccentricity0.0084893
Inclination3.4794°
RAAN83.7944°
Arg. of periapsis308.3902°
True anomaly51.27452°
Mean anomaly50.5186°
Eccentric anomaly50.89605°
Mean motion0.25022 °/min
BSTARUnknown
Orbital period1438.76 mins
Loading historical data...
43497 neighbors
Authenticating...
Loading maneuver chart data...
Loading historical data...
Loading historical data...
Loading historical data...
Loading historical data...
Loading historical data...
Loading historical data...
Loading historical data...
Other satellites on launch #50 in the year 2018 (2018-06-05 UTC)

FENGYUN 2H AKM Visibility forecast

Observer location: undefined°, undefined

FENGYUN 2H AKM is not visible in the next 10 days
Span
Click to sort rows by Start time (UTC) header in descending order
Start Az.
Max El. time (UTC)
Max El. Az.
Max El.
End time (UTC)
End Az.
|